Regional Weather Roundup
Issued by NWS Wakefield, VA

Home | Current Version | Previous Version | Graphics & Text | Print | Product List | Glossary On
Versions: 1 2 3 4 5 6 7 8 9 10 11 12 13 14 15 16 17 18 19 20 21 22 23 24 25 26 27 28 29 30 31 32 33 34 35 36 37 38 39 40 41 42 43 44 45 46 47 48 49 50
000
ASUS41 KAKQ 301315
RWRAKQ

REGIONAL WEATHER ROUNDUP
NATIONAL WEATHER SERVICE WAKEFIELD VA
900 AM EDT SAT MAY 30 2015

Note: "fair" indicates few or no clouds below 12,000 feet with no
significant weather and/or obstructions to visibility. * = Denotes
station may not report precipitation (e.g., rain,snow,etc.),
thunder or fog.

VAZ042-051-052>054-056-301400-
NORTHERN VIRGINIA

CITY           SKY/WX    TMP DP  RH WIND       PRES   REMARKS
WASH NATIONAL  PTSUNNY   77  68  73 S10       30.20S
DULLES         MOSUNNY   73  67  81 S9        30.19S
FORT BELVOIR   MOSUNNY   74  67  78 VRB6      30.20S
QUANTICO       MOSUNNY   74  67  78 SW9       30.21S
FREDERICKSBRG* MOSUNNY   76  73  90 SW7       30.20S
STAFFORD*      MOSUNNY   72  68  86 S5        30.24F
WARRENTON      SUNNY     75  69  81 S7        30.20S
CULPEPER*      MOSUNNY   72  66  81 S6        30.21S
MANASSAS*      MOSUNNY   73  70  88 S9        30.20S
LEESBURG*      CLOUDY    73  70  88 S8        30.20S
WINCHESTER     CLOUDY    72  68  88 S6        30.19R
FRONT ROYAL*   CLOUDY    68  66  94 CALM      30.18S
LURAY*         CLOUDY    70  70 100 CALM      30.20S
$$

VAZ048-049-060>072-079>083-301400-
CENTRAL AND SOUTH CENTRAL VIRGINIA

CITY           SKY/WX    TMP DP  RH WIND       PRES   REMARKS
RICHMOND       PTSUNNY   77  68  73 S12       30.22F
CHESTERFIELD*  NOT AVBL
PETERSBURG*    MOSUNNY   76  74  92 S5        30.24S
HANOVER        SUNNY     75  68  78 S10       30.24S
TAPPAHANNOCK*  SUNNY     76  65  67 S6        30.23F
QUINTON*       FAIR      73  69  85 S5        30.23S
CHARLOTTSVILLE CLOUDY    70  66  87 SW5       30.21R FOG
GORDONSVILLE*  FAIR      73  66  80 SW7       30.20S
ORANGE*        MOSUNNY   73  68  83 CALM      30.22S
LOUISA*        SUNNY     73  66  78 S7        30.21S
BUMPASS*       FAIR      74  67  77 S5        30.22S
FARMVILLE*     SUNNY     74  70  89 SW8       30.21S
CREWE*         FAIR      74  68  79 S5        30.23S
FORT PICKETT*  FAIR      75  68  79 SW8       30.24R
CHASE CITY*    FAIR      76  71  85 CALM      30.24S
CLARKSVILLE*   FAIR      72  68  88 SW6       30.23S
SOUTH HILL*    PTSUNNY   75  68  79 CALM      30.30S
LAWRENCEVILLE* PTSUNNY   73  70  88 S6        30.24S
EMPORIA*       MOSUNNY   73  68  83 S5        30.25S
$$

VAZ088>098-301400-
SOUTHEAST VIRGINIA

CITY           SKY/WX    TMP DP  RH WIND       PRES   REMARKS
NORFOLK        MOSUNNY   77  66  68 S8        30.24S
VIRGINIA BEACH PTSUNNY   79  68  69 SW7       30.24R
NORFOLK NAVAL  PTSUNNY   80  67  64 SW5       30.26R
WEST POINT*    SUNNY     78  67  68 S8        30.25S
SALUDA*        FAIR      76  69  79 SW8       30.24S
NEWPORT NEWS   SUNNY     80  67  64 SW7       30.24S
LANGLEY AFB    PTSUNNY   77  68  73 SW9       30.23S
FORT EUSTIS    SUNNY     76  73  89 S7        30.23R
WILLIAMSBURG*  SUNNY     77  70  78 S3        30.25S
HR EXEC AP*    FAIR      75  70  83 S3        30.26S
FRANKLIN*      SUNNY     76  67  73 S7        30.25S
WAKEFIELD      SUNNY     76  68  76 SW5       30.24S
$$

VAZ020-022-025-037-045-301400-
WEST CENTRAL AND SOUTHWEST VIRGINIA

CITY           SKY/WX    TMP DP  RH WIND       PRES   REMARKS
STAUNTON*      MOSUNNY   76  67  72 SW3       30.24R
WAYNESBORO*    FAIR      73  62  68 CALM      30.23S
HOT SPRINGS VA PTSUNNY   67  60  77 SW7       30.31S
LYNCHBURG      SUNNY     71  62  73 S8        30.24R
DANVILLE       SUNNY     73  65  75 SW7       30.23S
SOUTH BOSTON*  FAIR      73  67  79 CALM      30.23S
MARTINSVILLE   MOSUNNY   72  67  86 CALM      30.26S
ROANOKE        CLOUDY    68  65  90 CALM      30.25S
BLACKSBURG     MOSUNNY   68  61  78 CALM      30.29F
DUBLIN*        CLOUDY    65  65 100 CALM      30.28S FOG
MARION*        MOSUNNY   68  64  85 NE3       30.30S
HILLSVILLE*    SUNNY     67  63  89 SE5       30.31S
RICHLANDS*     FAIR      70  63  78 S3        30.27R
WISE*          MOSUNNY   70  57  64 S8        30.27S
ABINGDON*      SUNNY     71  64  79 E5        30.25S
$$

MDZ021>025-VAZ099-100-301400-
SOUTHERN MARYLAND AND THE DELMARVA PENINSULA

CITY           SKY/WX    TMP DP  RH WIND       PRES   REMARKS
PATUXENT RIVER MOSUNNY   77  67  71 SW9       30.22S
BAY BRIDGE APT   N/A    N/A N/A N/A S7        30.20F
LEONARDTOWN    SUNNY     73  64  73 S9        30.23S
DOVER          PTSUNNY   73  73 100 S10       30.20S
GEORGETOWN     CLOUDY    74  68  81 SW8       30.24S
EASTON         PTSUNNY   77  75  94 SW10      30.25F
CAMBRIDGE      PTSUNNY   77  68  73 S7        30.22S
SALISBURY      MOSUNNY   75  69  81 MISG      30.24S
OCEAN CITY     SUNNY     72  67  84 S6        30.24F
WALLOPS ISLAND MOSUNNY   75  70  84 S8        30.25S
ACCOMACK*      MOSUNNY   77  70  78 SW9       30.25R
$$

NCZ012>017-030>032-301400-
NORTH CENTRAL AND EASTERN NORTH CAROLINA

CITY           SKY/WX    TMP DP  RH WIND       PRES   REMARKS
ROANOKE RAPIDS FAIR      73  68  83 S5        30.24S
RALEIGH        PTSUNNY   74  68  81 SW5       30.24S
ELIZABETH CITY MOSUNNY   77  67  71 S3        30.25R
AHOSKIE*       SUNNY     75  67  75 S5        30.24F
EDENTON*       SUNNY     76  68  76 SW5       30.25R
CURRITUCK*     MOSUNNY   76  68  75 CALM      30.25S
KILL DEVIL HLS PTSUNNY   76  67  72 SE3       30.24R
MANTEO         SUNNY     75  67  75 SW3       30.25R
CAPE HATTERAS  SUNNY     76  63  64 E5        30.24S
TARBORO*       FAIR      76  68  74 S3        30.25S
GOLDSBORO      MOSUNNY   77  69  77 CALM      30.22R
WASHINGTON     SUNNY     75  67  75 SE5       30.25S
GREENVILLE     SUNNY     77  68  73 SE5       30.25S
NEW BERN       SUNNY     77  66  68 E3        30.25R
WILMINGTON     MOSUNNY   77  69  76 NE6       30.22R
$$

VAZ048-301400-
ELSEWHERE

CITY           SKY/WX    TMP DP  RH WIND       PRES   REMARKS
HARRISBURG PA  MOSUNNY   75  66  73 SW8       30.17S
BALTIMORE      PTSUNNY   75  67  76 SW8       30.19S
ANNAPOLIS      SUNNY     76  67  73 S6        30.20S
ANDREWS AFB    SUNNY     77  68  73 SW12      30.20S
PHILADELPHIA   CLOUDY    75  67  76 SW9       30.21S
HENDERSON NC   SUNNY     74  65  75 SW7       30.25S
GREENSBORO     MOSUNNY   74  66  76 W7        30.24R
ROCKY MOUNT    SUNNY     76  69  79 CALM      30.25R
$$

VAZ100-301400-
MARINE

STATION/POSITION TIME  TEMP    WIND        PRES    WAVE   SWELL
                       AIR SEA DIR/SP/G            HT/PER HT/PER
                 (UTC) (F)     (DEG/KT/KT) (MB)    (FT/S) (FT/S)
BRANDYWINE LGT   1200   65 65  180/  8/ 10 1023.9R
CAPE MAY NJ      1200   65 68  150/  7/  9 1023.5R
LEWES DE         1200   73 63  210/  9/ 13 1023.6R
15NM E FENWICK I 1250   67 65              1024.1R   3/ 9
OCEAN-CITY-INLET 1200   65 58  180/  5/  7 1023.9R
WACHAPREAGUE VA  1200   72 75  200/  5/  6 1024.2R
THOMAS POINT MD  1300   71 71  170/ 12/ 14 1023.2F
GOOSES REEF MD   1300   73 71  190/  8/ 10 1024.1F   1/ 3
COVE POINT MD    1200   72     220/ 12/ 14 1024.0R
SOLOMONS ISLAND  1200      72                N/A
BISHOPS HEAD MD  1200   73 75  200/ 11/ 13 1023.5R
PINEY POINT MD   1200          190/  6/  7   N/A
CAMBRIDGE MD     1200   74 74  210/  9/ 12 1023.3R
LEWISETTA VA     1200   72 76              1023.3R
RAPPAHANNOCK LGT 1200          170/  8/  8 1024.5R
STINGRAY PT      1300   73 73  170/  8/ 10 1024.0R   1
YORK RVR RNG VA  1200   73     200/  6/  6 1023.4R
YORKTOWN VA      1200   74 73   40/  2/  3 1023.7R
JAMESTOWN VA     1300   74 78  210/  2/  4   N/A
DOMINION TERM VA 1200   72     200/  3/  4 1024.2R
KIPTOPEKE VA     1200      76  170/  8/  8   N/A
CHES BAY BRIDGE  1200   72 65  140/  4/  4 1023.7R
CAPE HENRY VA    1200   72     120/  4/  5 1022.8R
CHESAPEAKE LGHT  1200   70     170/ 10/ 10 1024.8R
WILLOUBY STN VA  1200   75     210/  4/  5 1024.8R
CAPE HENRY BUOY  1228      65                N/A     3/10
1ST LANDING BUOY 1300      69              1023.9R
CAPE CHARLES BUO 1226      69                N/A     3/ 8   3/ 8
OFFSHORE WE BUOY 1211      68                N/A     3/ 9   3/ 9
64NM E OF VA BCH 1250   70 66   80/  4/  4 1024.1R   4/ 8   3/ 8
DUCK PIER NC     1200   69 57  140/  3/  3 1023.1R
44100 DUCK FRF   1224      74                N/A     3/ 8
44056 DUCK FRF   1211      64                N/A     3/ 9
OREGON INLET NC  1200   76 76  170/  4/  5 1024.0R
HATTERAS NC      1200   77 77  100/  4/  6 1023.5R
DIAMOND SHLS NC  1250   76 79  100/  4/  8 1023.9R   4/ 9   3/ 9
CAPE LOOKOUT NC  1300   76      70/  4/  5 1023.4R
$$


USA.gov is the U.S. government's official web portal to all federal, state and local government web resources and services.